📊 Raw Sensor Data
Showing records 51851 to 51875 of 85,153 total
| ID | Distance (ft) | Battery V | Battery A | Int Temp (°F) | Int Humid (%) | Ext Temp (°F) | Solar V | RSSI | SNR | Time Stamp |
|---|---|---|---|---|---|---|---|---|---|---|
| 33315 | 14.5 | 3.79 | 0 | 72 | 40 | 66 | 5.10 | -69 | 8 | 02/24/2025 04:00 PM |
| 33314 | 14.6 | 3.78 | 0 | 74 | 38 | 67 | 5.10 | -70 | 8 | 02/24/2025 03:45 PM |
| 33313 | 14.6 | 4.02 | 0 | 73 | 38 | 69 | 5.10 | -70 | 8 | 02/24/2025 03:30 PM |
| 33312 | 14.6 | 3.78 | 0 | 71 | 40 | 67 | 5.10 | -69 | 8 | 02/24/2025 03:15 PM |
| 33311 | 14.6 | 3.78 | 0 | 72 | 40 | 66 | 5.10 | -71 | 5 | 02/24/2025 03:00 PM |
| 33310 | 14.6 | 3.78 | 0 | 73 | 39 | 67 | 5.10 | -70 | 8 | 02/24/2025 02:45 PM |
| 33309 | 14.6 | 3.78 | 0 | 73 | 39 | 67 | 5.10 | -70 | 8 | 02/24/2025 02:30 PM |
| 33308 | 14.6 | 3.78 | 0 | 77 | 37 | 68 | 5.10 | -71 | 8 | 02/24/2025 02:15 PM |
| 33307 | 14.7 | 3.80 | 0 | 77 | 36 | 67 | 5.10 | -70 | 8 | 02/24/2025 02:00 PM |
| 33306 | 14.6 | 3.78 | 0 | 77 | 35 | 67 | 5.10 | -71 | 8 | 02/24/2025 01:45 PM |
| 33305 | 14.6 | 3.78 | 0 | 75 | 36 | 68 | 5.10 | -71 | 8 | 02/24/2025 01:30 PM |
| 33304 | 14.6 | 3.78 | 0 | 74 | 36 | 67 | 5.10 | -69 | 7 | 02/24/2025 01:15 PM |
| 33303 | 14.6 | 3.78 | 0 | 69 | 38 | 66 | 5.10 | -70 | 8 | 02/24/2025 01:00 PM |
| 33302 | 14.6 | 3.78 | 0 | 69 | 37 | 65 | 5.10 | -69 | 8 | 02/24/2025 12:45 PM |
| 33301 | 14.6 | 3.78 | 0 | 66 | 38 | 62 | 5.10 | -70 | 8 | 02/24/2025 12:30 PM |
| 33300 | 14.6 | 3.79 | 0 | 66 | 38 | 62 | 5.10 | -70 | 8 | 02/24/2025 12:15 PM |
| 33299 | 14.6 | 3.79 | 0 | 66 | 38 | 62 | 5.10 | -70 | 8 | 02/24/2025 12:00 PM |
| 33298 | 14.6 | 3.94 | 0 | 68 | 37 | 64 | 5.10 | -71 | 7 | 02/24/2025 11:45 AM |
| 33297 | 14.6 | 4.06 | 0 | 67 | 37 | 62 | 5.10 | -71 | 7 | 02/24/2025 11:30 AM |
| 33296 | 14.6 | 3.79 | 0 | 65 | 38 | 63 | 5.10 | -71 | 7 | 02/24/2025 11:15 AM |
| 33295 | 14.6 | 3.79 | 0 | 65 | 37 | 62 | 5.10 | -70 | 8 | 02/24/2025 11:00 AM |
| 33294 | 14.6 | 3.79 | 0 | 66 | 36 | 65 | 5.10 | -69 | 7 | 02/24/2025 10:45 AM |
| 33293 | 14.6 | 3.79 | 0 | 65 | 36 | 62 | 5.10 | -71 | 7 | 02/24/2025 10:30 AM |
| 33292 | 14.6 | 3.79 | 0 | 65 | 35 | 62 | 5.10 | -70 | 8 | 02/24/2025 10:15 AM |
| 33291 | 14.6 | 4.03 | 0 | 65 | 34 | 63 | 5.10 | -70 | 8 | 02/24/2025 10:00 AM |